Location: Hylvaty SDH
(49.9612°N, 16.4057°E)
Time: 19:17:23
(UTC+02:00)

Transit 4A - Pass Details

Date: 18 August 2020
Orbit: 862 x 982 km, 66.8° (Epoch: 28 September)

Event Time Altitude Azimuth Distance (km) Brightness Sun altitude
Rises 08:40:55 0° 211° (SSW) 3,496 10.7 26.3°
Reaches altitude 10° 08:43:22 10° 211° (SSW) 2,576 10.1 26.7°
Maximum altitude 08:49:22 83° 125° (SE) 937 8.6 27.6°
Drops below altitude 10° 08:55:37 10° 38° (NE) 2,676 10.7 28.6°
Sets 08:58:12 0° 38° (NE) 3,641 11.3 29.0°
